Regional Weather Roundup
Issued by NWS

Home | Current Version | Previous Version | Text Only | Print | Product List | Glossary Off
Versions: 1 2 3 4 5 6 7 8 9 10 11 12 13 14 15 16 17 18 19 20 21 22 23 24 25 26 27

000
ASUS45 KBOI 240210
RWRID

IDAHO REGIONAL WEATHER ROUNDUP
NATIONAL WEATHER SERVICE BOISE ID
800 PM MDT THU MAR 23 2017

NOTE: "FAIR" INDICATES FEW OR NO CLOUDS BELOW 12000 FEET
WITH NO SIGNIFICANT WEATHER AND/OR OBSTRUCTIONS TO VISIBILITY

IDZ012-014-240300-
SOUTHWEST IDAHO


CITY           SKY/WX    TMP DP  RH WIND       PRES   REMARKS
BOISE          CLEAR     51  26  37 N6        30.03R
CALDWELL       CLEAR     51  31  46 NE7       30.02R
MOUNTAIN HOME  CLEAR     52  29  40 N10       30.02R
$$

IDZ016-017-240300-
SOUTHCENTRAL IDAHO


CITY           SKY/WX    TMP DP  RH WIND       PRES   REMARKS
BURLEY         CLEAR     45  21  38 W10       30.01R
JEROME         CLEAR     45  24  43 W16       30.02R
TWIN FALLS     PTCLDY    42  27  55 SW10      30.02R
$$

IDZ019>023-240300-
SOUTHEAST IDAHO


CITY           SKY/WX    TMP DP  RH WIND       PRES   REMARKS
IDAHO FALLS    CLEAR     48  30  49 CALM      29.94R
POCATELLO      PTCLDY    47  31  53 SW17      29.99R
REXBURG        CLEAR     49  20  31 CALM      29.93R
$$

IDZ006-010-011-018-031-032-240300-
CENTRAL IDAHO MOUNTAINS


CITY           SKY/WX    TMP DP  RH WIND       PRES   REMARKS
MCCALL         CLEAR     41  22  46 SW5       29.99R
HAILEY         CLEAR     39  32  75 SE12      29.98R WCI  32
STANLEY          N/A     34  21  59 CALM      30.00R
SALMON         CLEAR     48  19  32 CALM      29.94R
CHALLIS        CLEAR     43  18  36 W8        29.94R
$$

IDZ002-004-006-007-026-240300-
NORTHERN IDAHO


CITY           SKY/WX    TMP DP  RH WIND       PRES   REMARKS
LEWISTON       CLEAR     52  31  44 NE6       30.02S
LOWELL           N/A     42  36  79 N3        30.05R
COEUR D`ALENE  PTCLDY    44  28  53 S5        30.04S
MULLAN PASS    PTCLDY    27  22  81 CALM      29.99R
$$




USA.gov is the U.S. government's official web portal to all federal, state and local government web resources and services.